CAPE
815 978 1019 1044 1001 876 691 581 620 701 806 944 961 709 490 531 664 766 793 658 517 263 136 97 91 12 1 0 85 177 124 393
673 841 954 937 839 807 617 526 555 616 688 789 726 484 365 358 436 642 606 502 313 138 43 17 0 0 0 0 85 78 82 168
558 698 773 809 763 721 563 495 515 553 601 643 537 333 273 274 216 429 416 273 82 18 0 0 0 0 0 0 0 64 38 89
294 538 676 698 738 596 486 469 413 379 434 461 303 191 133 101 65 193 213 114 9 0 0 0 0 0 0 0 0 0 0 0
102 248 495 533 484 460 363 340 239 222 267 248 125 56 32 11 0 49 53 11 0 0 0 0 0 0 0 0 0 0 0 0
121 33 235 233 190 247 220 166 63 60 84 85 39 0 1 0 0 1 0 0 0 0 0 0 0 0 0 0 0 0 0 0
226 87 20 0 3 5 0 0 6 0 8 26 0 0 0 0 0 0 0 0 0 0 0 0 0 0 0 0 0 0 0 0
698 262 117 14 16 0 0 0 0 0 0 21 0 0 0 0 0 0 0 0 0 0 0 0 0 0 0 0 0 0 0 35
977 487 323 200 542 50 0 0 0 0 0 21 0 0 7 6 3 10 9 3 0 0 0 0 0 0 0 0 0 1 143 65
1152 956 550 338 568 563 238 197 23 40 21 11 70 1 72 158 70 88 139 57 6 7 27 13 4 8 28 31 76 188 235 449
1275 1128 900 565 483 1097 660 421 558 360 495 240 199 306 460 428 327 115 214 145 86 72 94 57 99 81 111 290 457 531 487 592
1352 1228 1173 1061 635 1024 1333 817 714 883 793 906 764 712 681 921 586 405 179 419 375 233 186 219 173 101 426 666 603 702 697 651
1437 1437 1611 1399 1378 911 1585 1425 1134 906 1093 1069 1417 1175 1023 864 1096 829 444 389 467 486 377 325 422 512 593 466 408 682 758 688
1398 1490 1800 1748 1807 1403 1200 1610 1136 1398 1013 1323 1367 1665 1422 1160 985 1265 760 820 442 574 517 558 556 522 556 643 642 658 660 712
1337 1367 1732 1956 1831 1819 1525 1544 1564 1340 1538 1213 1428 1570 1669 1435 1236 1117 1337 964 1008 582 637 595 573 800 580 602 483 491 688 854
1459 1510 1605 1855 1856 1768 1639 1572 1558 1532 1481 1430 1287 1550 1710 1730 1569 1365 1250 1365 1085 1000 704 740 668 631 879 782 554 412 736 503
1706 1654 1408 1607 1779 1669 1741 1534 1586 1616 1436 1539 1426 1590 1754 1817 1779 1675 1500 1307 1425 1207 989 917 809 692 760 913 836 920 623 331
1802 1602 1430 1395 1683 1707 1774 1689 1436 1395 1553 1522 1674 1525 1670 1798 1858 1737 1710 1598 1411 1484 1273 1006 1013 897 839 1016 946 751 947 578
614 1268 1528 1604 1675 1580 1748 1842 1664 1601 1649 1819 1814 1784 1682 1711 1782 1777 1648 1730 1641 1556 1556 1427 1137 1063 970 1064 1063 877 762 903
0 0 90 1116 1365 1521 1703 1934 1752 1725 2064 2051 2162 2111 2040 2119 2080 1942 1782 1706 1765 1603 1625 1639 1489 1268 1151 1160 1103 1078 923 776
CIN
-630 -529 -484 -418 -377 -370 -388 -388 -319 -239 -163 -104 -76 -99 -142 -132 -121 -95 -83 -94 -115 -161 -186 -204 -213 -317 -60 -59 -69 -40 -77 -35
-675 -570 -495 -446 -424 -393 -418 -411 -350 -275 -210 -137 -122 -150 -161 -157 -143 -108 -111 -125 -158 -199 -251 -261 0 0 0 0 -65 -79 -125 -94
-708 -615 -546 -494 -457 -416 -430 -420 -373 -311 -237 -190 -188 -239 -234 -200 -213 -147 -151 -176 -243 -344 0 0 0 0 0 0 0 -81 -126 -135
-815 -678 -585 -534 -473 -472 -474 -436 -419 -400 -336 -274 -307 -332 -358 -360 -375 -229 -210 -262 -329 0 0 0 0 0 0 0 0 0 0 0
-897 -775 -645 -605 -575 -533 -529 -504 -517 -483 -416 -390 -412 -460 -512 -535 -22 -383 -371 -459 0 0 0 0 0 0 0 0 0 0 0 0
-836 -895 -702 -662 -689 -624 -589 -591 -655 -603 -538 -499 -538 -269 -147 0 0 -229 0 0 0 0 0 0 0 0 0 0 0 0 0 0
-707 -820 -864 0 -505 -314 0 0 -795 0 -652 -588 0 0 0 0 0 0 0 0 0 0 0 0 0 0 0 0 0 0 0 -93
-338 -637 -728 -575 -397 0 0 0 0 0 0 -604 0 0 0 0 0 0 0 0 0 0 0 0 0 0 0 0 0 0 0 -222
-245 -527 -571 -609 -500 -480 0 0 0 0 0 -538 0 0 -386 -442 -134 -474 -439 -373 0 0 0 0 0 0 0 0 0 -218 -72 -108
-242 -227 -503 -512 -442 -386 -431 -554 -603 -617 -589 -555 -478 -273 -446 -300 -355 -354 -265 -324 -440 -467 -377 -451 -497 -454 -341 -278 -158 -67 -48 -44
-241 -237 -304 -459 -433 -310 -322 -342 -412 -366 -414 -444 -337 -257 -299 -245 -216 -298 -259 -265 -290 -280 -252 -314 -280 -271 -194 -87 -101 -37 -28 -4
-239 -278 -380 -397 -383 -244 -202 -261 -357 -298 -277 -325 -237 -181 -175 -171 -184 -179 -259 -145 -164 -184 -194 -165 -168 -180 -80 -36 -36 -34 -27 -27
-207 -284 -340 -345 -284 -282 -152 -220 -246 -262 -238 -200 -225 -176 -153 -162 -143 -141 -173 -187 -156 -117 -128 -143 -116 -60 -28 -44 -78 -27 -28 -20
-177 -189 -257 -285 -286 -285 -247 -162 -200 -170 -206 -192 -212 -179 -154 -138 -164 -138 -198 -166 -204 -156 -146 -129 -101 -80 -54 -32 -20 -27 -57 -43
-162 -178 -242 -248 -275 -252 -198 -134 -81 -131 -159 -204 -190 -199 -172 -162 -160 -183 -137 -184 -165 -210 -184 -161 -153 -91 -93 -70 -43 -89 -75 -60
-18 -8 -232 -220 -219 -218 -223 -197 -169 -187 -190 -178 -201 -195 -193 -186 -196 -174 -190 -149 -184 -185 -217 -192 -165 -176 -97 -95 -95 -97 -60 -108
-23 -13 -110 -186 -190 -185 -191 -198 -178 -177 -159 -146 -164 -141 -167 -162 -170 -186 -180 -189 -167 -187 -185 -196 -187 -187 -204 -154 -96 -65 -79 -128
-23 -28 -161 -156 -153 -122 -119 -142 -169 -154 -128 -122 -130 -146 -126 -152 -163 -173 -180 -171 -196 -171 -165 -172 -162 -139 -189 -161 -178 -157 -121 -114
-78 -55 -66 -110 -121 -74 -40 -95 -86 -116 -132 -123 -93 -113 -136 -158 -182 -189 -200 -199 -168 -136 -115 -124 -150 -134 -148 -169 -136 -178 -188 -106
0 0 -5 -14 -20 -114 -70 -94 -103 -53 -72 -65 -44 -77 -75 -70 -85 -95 -128 -200 -153 -127 -90 -84 -91 -116 -126 -138 -134 -137 -165 -167
Wind_Speed
19 21 22 24 24 24 22 22 23 23 21 19 16 12 11 9 8 8 8 9 10 9 9 nan nan nan nan nan nan 15 14 10
20 20 22 21 19 24 24 23 21 22 21 19 17 14 11 10 9 9 9 8 8 10 nan nan nan nan nan nan nan nan nan 10
21 20 19 21 22 21 23 24 23 21 20 19 15 10 9 8 8 10 11 10 nan nan nan nan nan nan nan nan nan nan nan nan
23 21 20 21 22 23 20 19 18 17 15 16 12 11 10 10 nan 10 11 11 nan nan nan nan nan nan nan nan nan nan nan nan
26 25 21 21 23 23 20 18 17 17 17 15 13 nan nan nan nan nan nan nan nan nan nan nan nan nan nan nan nan nan nan nan
29 nan 24 22 25 24 23 21 nan nan nan nan nan nan nan nan nan nan nan nan nan nan nan nan nan nan nan nan nan nan nan nan
30 nan nan nan nan nan nan nan nan nan nan nan nan nan nan nan nan nan nan nan nan nan nan nan nan nan nan nan nan nan nan nan
35 32 29 nan nan nan nan nan nan nan nan nan nan nan nan nan nan nan nan nan nan nan nan nan nan nan nan nan nan nan nan nan
40 39 34 27 28 nan nan nan nan nan nan nan nan nan nan nan nan nan nan nan nan nan nan nan nan nan nan nan nan nan 24 nan
43 42 40 34 29 29 24 26 nan nan nan nan nan nan nan 20 nan nan 19 nan nan nan nan nan nan nan nan nan nan 24 25 30
42 44 42 40 35 35 27 25 26 28 26 24 24 20 20 22 20 19 20 19 nan nan nan nan nan nan 21 22 25 27 30 33
40 41 43 45 42 39 33 23 23 27 28 28 27 23 20 23 22 21 21 20 20 21 23 22 24 25 26 27 29 30 31 32
43 41 39 46 47 43 39 27 24 26 27 30 33 26 23 19 21 20 21 20 21 22 24 25 25 30 31 27 29 32 33 33
51 46 41 41 48 46 42 40 29 30 29 28 32 32 31 28 24 22 20 22 25 26 27 29 29 31 34 33 29 24 27 32
54 52 50 40 42 51 51 49 41 32 28 26 26 30 31 32 32 30 27 27 26 29 31 33 32 31 34 38 33 27 31 31
52 50 54 47 43 49 52 49 45 32 26 28 33 31 30 31 32 35 34 33 32 33 36 37 37 35 34 35 35 37 36 33
62 55 50 52 48 46 50 50 48 43 34 32 32 36 32 31 31 33 34 36 35 39 40 41 41 41 38 38 33 36 43 38
60 60 60 51 48 49 48 46 46 43 41 36 35 36 36 33 30 31 33 35 37 39 41 41 38 37 40 44 33 38 40 41
68 63 57 56 61 73 60 35 44 45 51 39 37 37 37 33 33 32 33 34 36 41 42 39 39 41 45 42 33 32 40 41
nan nan nan 69 57 55 42 40 47 42 40 39 39 42 37 35 34 32 33 34 36 41 43 42 39 42 43 41 38 35 37 39
Wind_Direction
300 315 316 322 322 322 327 332 334 335 333 331 332 331 329 331 329 323 310 294 295 298 286 nan nan nan nan nan nan 185 198 220
285 302 312 313 312 316 319 319 322 326 329 326 324 329 332 337 338 332 326 316 310 301 nan nan nan nan nan nan nan nan nan 237
279 288 298 307 305 308 313 313 309 313 319 320 315 309 317 333 346 342 339 339 nan nan nan nan nan nan nan nan nan nan nan nan
278 282 288 293 294 300 303 307 300 297 302 313 309 307 305 315 nan 337 343 345 nan nan nan nan nan nan nan nan nan nan nan nan
277 281 283 292 292 291 294 295 296 288 291 302 305 nan nan nan nan nan nan nan nan nan nan nan nan nan nan nan nan nan nan nan
278 nan 282 287 288 296 296 298 nan nan nan nan nan nan nan nan nan nan nan nan nan nan nan nan nan nan nan nan nan nan nan nan
279 nan nan nan nan nan nan nan nan nan nan nan nan nan nan nan nan nan nan nan nan nan nan nan nan nan nan nan nan nan nan nan
280 283 286 nan nan nan nan nan nan nan nan nan nan nan nan nan nan nan nan nan nan nan nan nan nan nan nan nan nan nan nan nan
280 284 285 289 281 nan nan nan nan nan nan nan nan nan nan nan nan nan nan nan nan nan nan nan nan nan nan nan nan nan 308 nan
274 278 287 290 286 287 287 291 nan nan nan nan nan nan nan 283 nan nan 292 nan nan nan nan nan nan nan nan nan nan 305 309 306
271 277 285 289 285 276 284 285 288 299 300 301 304 298 292 287 285 285 283 286 nan nan nan nan nan nan 299 300 302 308 310 308
270 268 278 282 278 273 271 277 283 287 294 295 303 299 302 284 285 292 288 282 283 290 295 292 295 300 300 302 302 303 305 307
274 270 271 271 275 281 277 285 275 280 277 291 299 305 307 297 279 283 290 298 297 298 290 296 297 298 295 295 299 310 315 310
277 275 269 266 268 275 276 274 267 260 268 275 293 304 308 302 296 290 297 292 299 303 305 292 300 303 301 296 301 302 308 320
274 275 275 269 270 266 266 263 260 259 263 274 276 290 297 302 301 298 298 294 302 305 305 310 306 303 305 300 299 311 305 311
273 277 276 273 268 265 273 273 273 271 261 260 268 275 286 293 298 302 301 300 304 305 302 306 301 310 297 309 299 302 309 308
266 269 271 272 271 267 265 267 269 267 258 258 269 265 275 284 287 292 298 295 301 305 307 307 309 309 312 303 301 301 305 299
260 268 258 264 265 258 258 265 267 265 258 259 262 265 266 276 287 289 291 294 297 296 297 301 304 306 306 304 310 312 309 304
246 247 255 260 259 260 254 259 256 266 253 255 263 263 265 278 286 283 283 291 292 288 293 298 304 301 298 305 303 312 305 302
nan nan nan 251 254 265 274 258 267 269 266 261 255 266 270 277 279 280 283 285 287 289 288 290 297 297 303 303 300 308 303 302